256P/LINEAR (2003)

Japanese version
Home page
Updated on February 1, 2012

---------------------------------------------------------------------

* Profile

Designation 256P/2003 HT15
Discovery Date April 26, 2003
Magnitude 18.3 mag
Discoverer Lincoln Laboratory Near-Earth Asteroid Research project

* Orbital Elements

Epoch 2003 May 1.0 TT = JDT 2452760.5
T 2003 Apr. 17.74527 TT                                 MPC
q   2.6715043            (2000.0)            P               Q
n   0.09973394     Peri.  124.05670     -0.80866500     +0.36762723
a   4.6051177      Node    81.47217     -0.56133353     -0.71574635
e   0.4198836      Incl.   27.67042     +0.17597042     -0.59376542
P   9.88
From 48 observations 2003 Jan. 27-2012 Jan. 27, mean residual 0".65.

* Finding Charts

* Magnitudes Graph

        m1 = 12.8 + 5 log d + 10.0 log r

---------------------------------------------------------------------

The orbital elements are published on M.P.E.C. 2012-B95.
The charts are made with StellaNavigator Ver.2.0 for Windows (AstroArts / ASCII).
The magnitudes graphs are made with Comet for Windows.

---------------------------------------------------------------------

Copyright(C) Seiichi Yoshida (comet@aerith.net). All rights reserved.